TimeMST,TemperatureF,Dew PointF,Humidity,Sea Level PressureIn,VisibilityMPH,Wind Direction,Wind SpeedMPH,Gust SpeedMPH,PrecipitationIn,Events,Conditions,WindDirDegrees,DateUTC
12:58 AM,42.1,23.9,49,30.13,10.0,ESE,3.5,-,N/A,,Clear,120,2014-01-11 07:58:00
1:58 AM,42.3,23.0,47,30.14,10.0,SE,9.2,-,N/A,,Clear,130,2014-01-11 08:58:00
2:58 AM,39.7,23.2,52,30.14,10.0,SSE,5.8,-,N/A,,Clear,160,2014-01-11 09:58:00
3:58 AM,39.0,23.0,53,30.13,10.0,SE,6.9,-,N/A,,Clear,140,2014-01-11 10:58:00
4:58 AM,41.0,22.5,48,30.12,10.0,SE,11.5,-,N/A,,Clear,130,2014-01-11 11:58:00
5:58 AM,39.0,22.6,52,30.14,10.0,SSE,8.1,-,N/A,,Clear,150,2014-01-11 12:58:00
6:58 AM,41.9,22.6,46,30.15,10.0,SSE,11.5,-,N/A,,Clear,160,2014-01-11 13:58:00
7:58 AM,42.8,22.6,45,30.17,10.0,SE,9.2,-,N/A,,Clear,130,2014-01-11 14:58:00
8:58 AM,49.5,23.2,36,30.16,10.0,SE,8.1,-,N/A,,Clear,130,2014-01-11 15:58:00
9:58 AM,54.9,24.3,31,30.17,10.0,South,3.5,-,N/A,,Clear,180,2014-01-11 16:58:00
10:58 AM,60.4,23.9,25,30.16,10.0,WNW,4.6,-,N/A,,Clear,290,2014-01-11 17:58:00
11:58 AM,60.1,25.7,27,30.13,10.0,NW,2.3,-,N/A,,Clear,320,2014-01-11 18:58:00
12:58 PM,63.1,25.9,24,30.10,10.0,Calm,Calm,-,N/A,,Clear,0,2014-01-11 19:58:00
1:58 PM,65.5,25.9,22,30.06,10.0,Calm,Calm,-,N/A,,Clear,0,2014-01-11 20:58:00
2:58 PM,67.1,25.3,21,30.04,10.0,NNW,2.3,-,N/A,,Clear,330,2014-01-11 21:58:00
3:58 PM,68.0,25.9,21,30.04,10.0,Calm,Calm,-,N/A,,Clear,0,2014-01-11 22:58:00
4:58 PM,67.3,22.8,19,30.02,10.0,NW,2.3,-,N/A,,Clear,310,2014-01-11 23:58:00
5:58 PM,64.4,25.2,23,30.03,10.0,NW,2.3,-,N/A,,Clear,320,2014-01-12 00:58:00
6:58 PM,57.0,27.0,32,30.05,10.0,NNW,1.2,-,N/A,,Clear,330,2014-01-12 01:58:00
7:58 PM,54.0,28.2,37,30.05,10.0,Calm,Calm,-,N/A,,Clear,0,2014-01-12 02:58:00
8:58 PM,49.3,29.3,46,30.05,10.0,Calm,Calm,-,N/A,,Clear,0,2014-01-12 03:58:00
9:58 PM,46.0,29.3,52,30.04,10.0,SE,6.9,-,N/A,,Clear,130,2014-01-12 04:58:00
10:58 PM,46.2,26.2,46,30.04,10.0,SE,10.4,-,N/A,,Clear,130,2014-01-12 05:58:00
11:58 PM,45.9,23.9,42,30.01,10.0,SE,9.2,-,N/A,,Clear,140,2014-01-12 06:58:00